Previsão horária em Almoharin

Hoje, 20 Janeiro, Quarta-feira

Tempo Temperatura Precipitação Vento Pressão Humidade
00:00 +8°C° 0 mm 3 m/s 726 mmHg 86%
01:00 +8°C° 0 mm 3 m/s 725 mmHg 86%
02:00 +8°C° 0 mm 3 m/s 724 mmHg 86%
03:00 +7°C° 0 mm 4 m/s 723 mmHg 85%
04:00 +7°C° 1 mm 4 m/s 723 mmHg 88%
05:00 +7°C° 1 mm 4 m/s 722 mmHg 90%
06:00 +8°C° 0 mm 2 m/s 722 mmHg 93%
07:00 +8°C° 3.1 mm 3 m/s 722 mmHg 94%
08:00 +9°C° 3.1 mm 3 m/s 721 mmHg 95%
09:00 +9°C° 3.1 mm 3 m/s 721 mmHg 95%
10:00 +9°C° 0.6 mm 5 m/s 721 mmHg 92%
11:00 +10°C° 0.6 mm 6 m/s 721 mmHg 88%
12:00 +11°C° 0 mm 6 m/s 721 mmHg 84%
13:00 +11°C° 0.5 mm 6 m/s 720 mmHg 84%
14:00 +11°C° 0.5 mm 6 m/s 720 mmHg 83%
15:00 +11°C° 0.5 mm 6 m/s 719 mmHg 83%
16:00 +10°C° 0.6 mm 6 m/s 720 mmHg 85%
17:00 +10°C° 0.6 mm 6 m/s 720 mmHg 88%
18:00 +9°C° 0.6 mm 5 m/s 720 mmHg 90%
19:00 +9°C° 0.3 mm 5 m/s 721 mmHg 92%
20:00 +9°C° 0.3 mm 5 m/s 721 mmHg 93%
21:00 +8°C° 0.3 mm 5 m/s 722 mmHg 94%
22:00 +8°C° 0.2 mm 5 m/s 722 mmHg 94%
23:00 +9°C° 0.2 mm 5 m/s 723 mmHg 94%

Amanhã, 21 Janeiro, Quinta-feira

Tempo Temperatura Precipitação Vento Pressão Humidade
00:00 +9°C° 0.2 mm 5 m/s 723 mmHg 93%
01:00 +9°C° 0.1 mm 5 m/s 724 mmHg 94%
02:00 +9°C° 0.1 mm 5 m/s 724 mmHg 94%
03:00 +8°C° 0.1 mm 4 m/s 724 mmHg 95%
04:00 +8°C° 0.1 mm 4 m/s 724 mmHg 95%
05:00 +8°C° 0.1 mm 4 m/s 725 mmHg 95%
06:00 +10°C° 0.1 mm 4 m/s 725 mmHg 95%
07:00 +10°C° 0.1 mm 4 m/s 725 mmHg 94%
08:00 +9°C° 0.1 mm 5 m/s 726 mmHg 93%
09:00 +9°C° 0.1 mm 5 m/s 726 mmHg 93%
10:00 +9°C° 0 mm 5 m/s 726 mmHg 90%
11:00 +10°C° 0 mm 5 m/s 726 mmHg 88%
12:00 +10°C° 0 mm 6 m/s 726 mmHg 85%
13:00 +11°C° 0.1 mm 6 m/s 725 mmHg 85%
14:00 +11°C° 0.1 mm 6 m/s 725 mmHg 85%
15:00 +12°C° 0.1 mm 7 m/s 724 mmHg 85%
16:00 +11°C° 0.1 mm 6 m/s 724 mmHg 86%
17:00 +11°C° 0.1 mm 6 m/s 724 mmHg 88%
18:00 +10°C° 0.1 mm 6 m/s 724 mmHg 89%
19:00 +10°C° 0.7 mm 6 m/s 724 mmHg 91%
20:00 +11°C° 0.7 mm 6 m/s 724 mmHg 92%
21:00 +11°C° 0.7 mm 6 m/s 724 mmHg 94%
22:00 +11°C° 0.6 mm 6 m/s 724 mmHg 94%
23:00 +11°C° 0.6 mm 6 m/s 723 mmHg 94%

Depois de amanhã, 22 Janeiro, Sexta-feira

Tempo Temperatura Precipitação Vento Pressão Humidade
00:00 +11°C° 0.6 mm 6 m/s 723 mmHg 94%
01:00 +11°C° 0.3 mm 6 m/s 722 mmHg 93%
02:00 +11°C° 0.3 mm 7 m/s 722 mmHg 92%
03:00 +11°C° 0.3 mm 7 m/s 721 mmHg 92%
04:00 +10°C° 0.2 mm 8 m/s 721 mmHg 89%
05:00 +10°C° 0.2 mm 9 m/s 722 mmHg 87%
06:00 +8°C° 0.2 mm 9 m/s 722 mmHg 84%
07:00 +8°C° 0.1 mm 9 m/s 722 mmHg 84%
08:00 +7°C° 0.1 mm 8 m/s 723 mmHg 84%
09:00 +6°C° 0.1 mm 7 m/s 724 mmHg 84%
10:00 +7°C° 0.2 mm 8 m/s 724 mmHg 80%
11:00 +9°C° 0.2 mm 8 m/s 724 mmHg 76%
12:00 +10°C° 0.2 mm 9 m/s 724 mmHg 72%
13:00 +10°C° 0.3 mm 8 m/s 725 mmHg 72%
14:00 +9°C° 0.3 mm 8 m/s 725 mmHg 72%
15:00 +9°C° 0.3 mm 8 m/s 725 mmHg 73%
16:00 +8°C° 0.1 mm 7 m/s 725 mmHg 77%
17:00 +7°C° 0.1 mm 5 m/s 725 mmHg 81%
18:00 +6°C° 0.1 mm 4 m/s 726 mmHg 85%
19:00 +5°C° 0 mm 4 m/s 726 mmHg 87%
20:00 +5°C° 0 mm 4 m/s 726 mmHg 89%
21:00 +4°C° 0 mm 4 m/s 727 mmHg 92%
22:00 +4°C° 0 mm 4 m/s 727 mmHg 93%
23:00 +4°C° 0 mm 4 m/s 727 mmHg 94%

23 Janeiro, Sábado

Tempo Temperatura Precipitação Vento Pressão Humidade
00:00 +4°C° 0 mm 4 m/s 728 mmHg 95%
01:00 +4°C° 0 mm 4 m/s 728 mmHg 95%
02:00 +4°C° 0 mm 4 m/s 727 mmHg 94%
03:00 +4°C° 0 mm 4 m/s 727 mmHg 94%
04:00 +4°C° 0 mm 4 m/s 727 mmHg 94%
05:00 +4°C° 0 mm 4 m/s 727 mmHg 93%
06:00 +4°C° 0 mm 4 m/s 727 mmHg 93%
07:00 +4°C° 0 mm 4 m/s 727 mmHg 92%
08:00 +5°C° 0 mm 4 m/s 727 mmHg 91%
09:00 +5°C° 0 mm 4 m/s 727 mmHg 90%
10:00 +6°C° 0 mm 5 m/s 727 mmHg 87%
11:00 +7°C° 0 mm 5 m/s 727 mmHg 83%
12:00 +9°C° 0 mm 6 m/s 727 mmHg 80%
13:00 +9°C° 0 mm 6 m/s 726 mmHg 81%
14:00 +9°C° 0 mm 6 m/s 725 mmHg 81%
15:00 +9°C° 0 mm 6 m/s 724 mmHg 81%
16:00 +9°C° 0.1 mm 6 m/s 724 mmHg 83%
17:00 +9°C° 0.1 mm 7 m/s 723 mmHg 85%
18:00 +9°C° 0.1 mm 7 m/s 723 mmHg 87%
19:00 +9°C° 0.7 mm 8 m/s 723 mmHg 90%
20:00 +9°C° 0.7 mm 8 m/s 722 mmHg 92%
21:00 +9°C° 0.7 mm 8 m/s 722 mmHg 94%
22:00 +10°C° 1.4 mm 8 m/s 722 mmHg 94%
23:00 +11°C° 1.4 mm 9 m/s 722 mmHg 94%

24 Janeiro, Domingo

Tempo Temperatura Precipitação Vento Pressão Humidade
00:00 +11°C° 1.4 mm 9 m/s 722 mmHg 94%
01:00 +10°C° 0.6 mm 8 m/s 722 mmHg 92%
02:00 +9°C° 0.6 mm 7 m/s 722 mmHg 90%
03:00 +8°C° 0.6 mm 6 m/s 722 mmHg 89%
04:00 +7°C° 0 mm 5 m/s 722 mmHg 91%
05:00 +6°C° 0 mm 5 m/s 723 mmHg 93%
06:00 +6°C° 0 mm 4 m/s 723 mmHg 95%
07:00 +6°C° 0 mm 4 m/s 724 mmHg 94%
08:00 +6°C° 0 mm 4 m/s 725 mmHg 94%
09:00 +6°C° 0 mm 4 m/s 725 mmHg 93%
10:00 +8°C° 0 mm 4 m/s 726 mmHg 87%
11:00 +10°C° 0 mm 4 m/s 726 mmHg 80%
12:00 +11°C° 0 mm 4 m/s 727 mmHg 74%
13:00 +11°C° 0 mm 4 m/s 726 mmHg 71%
14:00 +11°C° 0 mm 4 m/s 726 mmHg 69%
15:00 +12°C° 0 mm 4 m/s 726 mmHg 66%
16:00 +10°C° 0 mm 4 m/s 726 mmHg 71%
17:00 +9°C° 0 mm 3 m/s 726 mmHg 75%
18:00 +8°C° 0 mm 2 m/s 726 mmHg 79%
19:00 +7°C° 0 mm 2 m/s 726 mmHg 82%
20:00 +7°C° 0 mm 2 m/s 727 mmHg 84%
21:00 +7°C° 0 mm 2 m/s 727 mmHg 87%
22:00 +7°C° 0 mm 2 m/s 727 mmHg 87%
23:00 +6°C° 0 mm 2 m/s 728 mmHg 88%

25 Janeiro, Segunda-feira

Tempo Temperatura Precipitação Vento Pressão Humidade
00:00 +7°C° 0 mm 1 m/s 728 mmHg 89%
01:00 +7°C° 0 mm 1 m/s 728 mmHg 90%
02:00 +7°C° 0 mm 1 m/s 728 mmHg 91%
03:00 +7°C° 0 mm 1 m/s 728 mmHg 92%
04:00 +6°C° 0 mm 1 m/s 728 mmHg 93%
05:00 +5°C° 0 mm 1 m/s 728 mmHg 94%
06:00 +5°C° 0 mm 1 m/s 728 mmHg 95%
07:00 +5°C° 0 mm 1 m/s 728 mmHg 94%
08:00 +6°C° 0 mm 1 m/s 729 mmHg 93%
09:00 +6°C° 0 mm 0 m/s 729 mmHg 91%
10:00 +9°C° 0 mm 1 m/s 730 mmHg 84%
11:00 +10°C° 0 mm 1 m/s 730 mmHg 76%
12:00 +12°C° 0 mm 1 m/s 730 mmHg 69%
13:00 +12°C° 0 mm 1 m/s 730 mmHg 68%
14:00 +13°C° 0 mm 2 m/s 730 mmHg 67%
15:00 +13°C° 0 mm 2 m/s 729 mmHg 66%
16:00 +12°C° 0 mm 2 m/s 729 mmHg 73%
17:00 +10°C° 0 mm 1 m/s 730 mmHg 80%
18:00 +9°C° 0 mm 1 m/s 730 mmHg 87%
19:00 +9°C° 0 mm 1 m/s 730 mmHg 89%
20:00 +8°C° 0 mm 1 m/s 731 mmHg 91%
21:00 +8°C° 0 mm 1 m/s 731 mmHg 93%
22:00 +7°C° 0 mm 1 m/s 731 mmHg 93%
23:00 +6°C° 0 mm 0 m/s 732 mmHg 93%
Mostrar mais

Necessitamos do seu Consentimento

A Meteoprog e os seus Fornecedores de Serviços podem armazenar e aceder a dados pessoais como cookies, identificadores do dispositivo ou outras tecnologias semelhantes existentes no seu dispositivo e processar estes dados para personalizar conteúdos e anúncios, assim como funcionalidades nas redes sociais e análise de tráfego.

  • Armazenar e/ou aceder a informações no seu dispositivo

    Os cookies, identificadores do dispositivo ou outras informações podem ser armazenados ou acedidos no seu dispositivo, para os fins acima indicados.

  • Anúncios e conteúdos personalizados, medição de anúncios e conteúdos, dados sobre o público-alvo e desenvolvimento de produtos

    Os anúncios e os conteúdos podem ser personalizados com base num perfil. Podem ser adicionados dados adicionais para uma maior personalização dos anúncios e dos conteúdos. A eficácia dos anúncios e dos conteúdos pode ser medida. Podem ser obtidas informações sobre o público que visualizou os anúncios e os conteúdos. Estes dados podem ser usados para desenvolver ou melhorar sistemas, softwares ou a experiência do utilizador.

Ao clicar em "Eu concordo”, permitirá o uso de cookies, identificadores do dispositivo e web beacons mencionados ou outras tecnologias semelhantes. As configurações do navegador do seu dispositivo podem ser alteradas.

Para certos fins, podem ser invocados interesses legítimos ao invés de consentimento. Pode ler mais informação sobre este assunto na nossa Política de Privacidade e Cookies.